Weather History for Kirksville, MO

Change the Weather History Date:

Tuesday, July 30, 2013

  Actual Average Record
Temperature  
Mean Temperature 71 °F 76 °F  
Max Temperature 76 °F 86 °F 105 °F (1980)
Min Temperature 65 °F 65 °F 47 °F (1971)
Degree Days  
Heating Degree Days 0 0  
Month to date heating degree days 8 0  
Since 1 June heating degree days 44 16  
Since 1 July heating degree days 8 0  
Cooling Degree Days 6 11  
Month to date cooling degree days 251 305  
Year to date cooling degree days 526 559  
Since 1 June cooling degree days 458 497  
Growing Degree Days 20 (Base 50)    
Moisture  
Dew Point 68 °F    
Average Humidity 90    
Maximum Humidity 100    
Minimum Humidity 79    
Precipitation  
Precipitation 0.11 in 0.16 in 1.50 in (1959)
Month to date precipitation 1.98 4.49  
Year to date precipitation 29.89 23.42  
Sea Level Pressure  
Sea Level Pressure 30.05 in    
Wind  
Wind Speed 6 mph (ENE)    
Max Wind Speed 13 mph    
Max Gust Speed 17 mph    
Visibility 6 miles    
Events Rain    
T = Trace of Precipitation, MM = Missing Value Source: NWS Daily Summary

Daily Weather History Graph

Daily Weather History Graph

Search for Another Location

Airport:

Trip Planner

Search our weather history database for the weather conditions in past years. The results will help you decide how hot, cold, wet, or windy it might be!

Date:

Astronomy

Jul. 30, 2013 Rise Set
Actual Time 6:06 AM CDT 8:25 PM CDT
Civil Twilight 5:36 AM CDT 8:56 PM CDT
Nautical Twilight 4:58 AM CDT 9:33 PM CDT
Astronomical Twilight 4:16 AM CDT 10:15 PM CDT
Moon 12:24 AM CDT (7/30) 2:46 PM CDT (7/30)
Length of Visible Light 15h 20m
Length of Day
14h 19m
Last Quarter, 41% of the Moon is Illuminated
Jul 30
Last Quarter
Aug 6
New
Aug 14
First Quarter
Aug 20
Full
Aug 28
Last Quarter

Hourly Weather History & Observations

Time (CDT) Temp. Dew Point Humidity Pressure Visibility Wind Dir Wind Speed Gust Speed Precip Events Conditions
12:04 AM 66.2 °F 64.4 °F 94% 30.09 in 2.5 mi SE 10.4 mph - 0.08 in Rain Rain
12:14 AM 66.2 °F 64.4 °F 94% 30.09 in 1.2 mi SE 13.8 mph 19.6 mph 0.22 in Rain Heavy Rain
12:50 AM 64.4 °F 64.4 °F 100% 30.09 in 2.0 mi East 11.5 mph - 0.98 in Rain Rain
12:55 AM 64.9 °F 64.0 °F 97% 30.09 in 4.0 mi East 9.2 mph - 1.00 in Rain Light Rain
1:55 AM 64.9 °F 64.0 °F 97% 30.08 in 10.0 mi ESE 10.4 mph - 0.07 in Rain Light Rain
2:55 AM 66.0 °F 64.0 °F 93% 30.06 in 6.0 mi ESE 12.7 mph - 0.00 in Rain Light Rain
3:55 AM 64.9 °F 64.0 °F 97% 30.06 in 8.0 mi ESE 8.1 mph - 0.04 in   Overcast
4:55 AM 66.0 °F 64.0 °F 93% 30.05 in 8.0 mi SE 9.2 mph - N/A   Overcast
5:55 AM 66.0 °F 64.0 °F 93% 30.05 in 7.0 mi ESE 6.9 mph - N/A   Overcast
6:55 AM 66.0 °F 64.0 °F 93% 30.06 in 5.0 mi SE 5.8 mph - N/A   Overcast
7:55 AM 66.0 °F 64.0 °F 93% 30.06 in 5.0 mi SE 8.1 mph - N/A   Overcast
8:38 AM 66.2 °F 64.4 °F 94% 30.06 in 6.0 mi SE 9.2 mph - N/A   Overcast
8:55 AM 66.9 °F 64.9 °F 93% 30.06 in 8.0 mi SSE 9.2 mph - N/A   Overcast
9:05 AM 66.2 °F 64.4 °F 94% 30.06 in 8.0 mi SE 5.8 mph - N/A   Overcast
9:33 AM 68.0 °F 64.4 °F 88% 30.06 in 10.0 mi SE 6.9 mph - N/A   Overcast
9:55 AM 68.0 °F 64.9 °F 90% 30.06 in 10.0 mi SE 5.8 mph - N/A   Overcast
10:55 AM 71.1 °F 66.0 °F 84% 30.05 in 10.0 mi SSE 5.8 mph - N/A   Overcast
11:50 AM 75.2 °F 68.0 °F 78% 30.05 in 10.0 mi Variable 3.5 mph - N/A   Overcast
11:55 AM 75.0 °F 68.0 °F 79% 30.04 in 10.0 mi SE 4.6 mph - N/A   Overcast
12:55 PM 75.9 °F 69.1 °F 79% 30.03 in 9.0 mi South 3.5 mph - N/A   Overcast
1:55 PM 73.9 °F 69.1 °F 85% 30.02 in 8.0 mi South 4.6 mph - N/A   Overcast
2:55 PM 73.9 °F 70.0 °F 87% 30.02 in 6.0 mi Calm Calm - N/A   Overcast
3:55 PM 73.9 °F 70.0 °F 87% 30.02 in 5.0 mi Calm Calm - N/A   Overcast
4:55 PM 73.9 °F 71.1 °F 91% 30.03 in 2.5 mi NW 3.5 mph - 0.00 in Rain Light Rain
5:08 PM 73.4 °F 71.6 °F 94% 30.03 in 4.0 mi NNW 4.6 mph - 0.00 in   Overcast
5:19 PM 73.4 °F 71.6 °F 94% 30.03 in 6.0 mi NNW 4.6 mph - 0.00 in   Overcast
5:26 PM 75.2 °F 71.6 °F 89% 30.03 in 6.0 mi NNW 4.6 mph - 0.00 in   Overcast
5:55 PM 73.9 °F 70.0 °F 87% 30.03 in 6.0 mi North 4.6 mph - 0.00 in   Overcast
6:37 PM 73.4 °F 69.8 °F 88% 30.03 in 6.0 mi North 6.9 mph - N/A   Overcast
6:44 PM 73.4 °F 71.6 °F 94% 30.03 in 6.0 mi NNE 5.8 mph - N/A   Overcast
6:55 PM 73.0 °F 70.0 °F 90% 30.03 in 6.0 mi North 5.8 mph - N/A   Overcast
7:30 PM 71.6 °F 69.8 °F 94% 30.03 in 3.0 mi North 6.9 mph - N/A   Overcast
7:46 PM 71.6 °F 69.8 °F 94% 30.04 in 2.5 mi North 8.1 mph - N/A   Overcast
7:52 PM 71.6 °F 69.8 °F 94% 30.04 in 1.8 mi North 6.9 mph - N/A   Overcast
7:53 PM 72.0 °F 70.0 °F 93% 30.03 in 1.8 mi North 6.9 mph - N/A   Overcast
8:05 PM 71.6 °F 69.8 °F 94% 30.04 in 2.0 mi North 8.1 mph - N/A   Overcast
8:20 PM 71.6 °F 69.8 °F 94% 30.04 in 2.0 mi North 6.9 mph - N/A   Overcast
8:26 PM 69.8 °F 69.8 °F 100% 30.04 in 3.0 mi North 9.2 mph - N/A   Overcast
8:55 PM 70.0 °F 68.0 °F 93% 30.04 in 4.0 mi North 8.1 mph - N/A   Overcast
9:05 PM 69.8 °F 68.0 °F 94% 30.05 in 4.0 mi NNE 6.9 mph - N/A   Overcast
9:33 PM 69.8 °F 68.0 °F 94% 30.06 in 4.0 mi North 8.1 mph - N/A   Overcast
9:55 PM 70.0 °F 68.0 °F 93% 30.07 in 4.0 mi NNE 6.9 mph - N/A   Overcast
10:55 PM 69.1 °F 66.9 °F 93% 30.09 in 4.0 mi NNE 6.9 mph - N/A   Overcast
11:55 PM 68.0 °F 66.9 °F 96% 30.07 in 4.0 mi NNE 3.5 mph - N/A   Overcast